TimeMST,TemperatureF,Dew PointF,Humidity,Sea Level PressureIn,VisibilityMPH,Wind Direction,Wind SpeedMPH,Gust SpeedMPH,PrecipitationIn,Events,Conditions,WindDirDegrees,DateUTC
12:54 AM,19.0,1.0,46,30.04,10.0,West,13.8,-,N/A,,Clear,260,2013-01-05 07:54:00
1:54 AM,19.0,1.0,46,30.06,10.0,WSW,15.0,-,N/A,,Clear,250,2013-01-05 08:54:00
2:54 AM,19.0,1.9,47,30.07,10.0,West,15.0,-,N/A,,Clear,260,2013-01-05 09:54:00
3:54 AM,19.0,1.9,47,30.09,10.0,West,9.2,-,N/A,,Clear,280,2013-01-05 10:54:00
5:54 AM,18.0,1.9,50,30.20,10.0,West,9.2,-,N/A,,Clear,260,2013-01-05 12:54:00
6:54 AM,15.1,1.9,56,30.25,10.0,WSW,5.8,-,N/A,,Clear,250,2013-01-05 13:54:00
7:54 AM,17.1,3.0,54,30.27,10.0,SSW,3.5,-,N/A,,Clear,210,2013-01-05 14:54:00
8:54 AM,24.1,6.1,46,30.29,10.0,WNW,6.9,-,N/A,,Clear,300,2013-01-05 15:54:00
9:54 AM,30.9,7.0,37,30.31,10.0,West,5.8,-,N/A,,Clear,280,2013-01-05 16:54:00
10:54 AM,39.9,7.0,26,30.27,10.0,North,13.8,-,N/A,,Clear,10,2013-01-05 17:54:00
11:54 AM,39.0,7.0,27,30.27,10.0,Variable,3.5,-,N/A,,Clear,0,2013-01-05 18:54:00
12:54 PM,41.0,8.1,26,30.25,10.0,NNE,5.8,-,N/A,,Clear,20,2013-01-05 19:54:00
1:54 PM,43.0,8.1,24,30.24,10.0,Variable,4.6,-,N/A,,Clear,0,2013-01-05 20:54:00
2:54 PM,42.1,8.1,25,30.25,10.0,NE,9.2,-,N/A,,Clear,50,2013-01-05 21:54:00
3:54 PM,41.0,9.0,27,30.28,10.0,East,4.6,-,N/A,,Clear,80,2013-01-05 22:54:00
4:54 PM,36.0,9.0,33,30.32,10.0,SE,3.5,-,N/A,,Clear,130,2013-01-05 23:54:00
5:54 PM,34.0,10.0,37,30.35,10.0,Calm,Calm,-,N/A,,Clear,0,2013-01-06 00:54:00
6:54 PM,23.0,9.0,55,30.43,10.0,West,4.6,-,N/A,,Clear,280,2013-01-06 01:54:00
7:54 PM,19.9,8.1,60,30.45,10.0,West,9.2,-,N/A,,Clear,260,2013-01-06 02:54:00
8:54 PM,19.0,8.1,62,30.43,10.0,West,6.9,-,N/A,,Clear,260,2013-01-06 03:54:00
9:54 PM,19.9,8.1,60,30.41,10.0,West,8.1,-,N/A,,Clear,270,2013-01-06 04:54:00
10:54 PM,15.1,6.1,68,30.40,10.0,West,9.2,-,N/A,,Clear,280,2013-01-06 05:54:00
11:54 PM,17.1,7.0,65,30.38,10.0,West,11.5,-,N/A,,Clear,260,2013-01-06 06:54:00